Simultaneous Nadir Overpasses (SNOs) Predictions

Prediction of SNOs between METOP-B and NOAA-19 Satellite Orbit:

Table of predicted SNOs for the next 14.0 days since TLE Epoch: 7/24/2021
Index Date (METOP-B) Time (METOP-B) Lat,Lon (METOP-B) SZA (METOP-B ) Date (NOAA-19) Time (NOAA-19) Lat,Lon (NOAA-19) SZA (NOAA-19 ) Distance(km) Time Diff (sec)
1 07/25/2021 18:50:30 -80.58, 106.75 117.79 07/25/2021 18:49:35 -80.57, 106.77 117.81 0.55 55
2 07/25/2021 19:41:11 80.57, -86.05 62.20 07/25/2021 19:40:31 80.58, -86.14 62.19 2.18 40
3 07/25/2021 20:31:52 -80.57, 81.28 117.80 07/25/2021 20:31:35 -80.57, 81.38 117.79 1.78 17
4 07/25/2021 21:22:33 80.56,-111.52 62.20 07/25/2021 21:22:31 80.58,-111.54 62.21 2.05 2
5 07/25/2021 22:13:14 -80.56, 55.81 117.80 07/25/2021 22:13:35 -80.56, 55.98 117.77 3.25 21
6 07/25/2021 23:03:54 80.57,-136.66 62.24 07/25/2021 23:04:30 80.56,-136.59 62.25 2.11 36
7 07/25/2021 23:54:35 -80.57, 30.67 117.76 07/25/2021 23:55:35 -80.56, 30.58 117.75 2.01 60
8 07/26/2021 00:45:16 80.56,-162.13 62.24 07/26/2021 00:46:30 80.55,-161.99 62.27 2.92 74
9 08/05/2021 21:45:17 -80.59, 63.29 115.00 08/05/2021 21:44:16 -80.59, 63.11 115.04 3.26 61
10 08/05/2021 22:35:58 80.58,-129.52 64.99 08/05/2021 22:35:10 80.58,-129.38 64.99 2.54 48
11 08/05/2021 23:26:39 -80.58, 37.81 115.00 08/05/2021 23:26:16 -80.59, 37.71 115.01 1.96 23
12 08/06/2021 00:17:19 80.60,-154.66 65.04 08/06/2021 00:17:10 80.58,-154.78 65.01 3.05 9
13 08/06/2021 01:08:01 -80.57, 12.34 115.00 08/06/2021 01:08:16 -80.58, 12.31 114.99 1.18 15
14 08/06/2021 01:58:41 80.59, 179.86 65.04 08/06/2021 01:59:10 80.57, 179.82 65.04 1.73 29
15 08/06/2021 02:49:23 -80.56, -13.13 115.00 08/06/2021 02:50:16 -80.58, -13.09 114.96 1.79 53



Historial Predications of SNOs between METOP-B and NOAA-19
